Wind_Speed
18 16 16 17 14 14 11 5 7 6 4 3 4 6 8 8 8 7 2 5 7 7 5 4 5 5 5 5 7 8 8 7 6 5 5 5 5 5 5 4 3 4 5
11 13 14 13 14 12 10 7 4 8 9 4 3 3 6 5 5 7 3 1 4 7 7 6 5 7 6 6 6 6 7 7 7 7 7 6 4 5 6 6 6 6 7
16 2 17 14 9 7 10 5 8 5 6 11 6 4 2 2 6 2 6 6 3 4 6 6 6 8 7 6 6 7 7 8 8 8 7 8 8 8 8 7 7 8 8
10 29 11 6 11 12 11 10 8 14 8 12 8 8 4 5 3 5 4 4 6 1 4 6 6 8 7 7 7 8 8 9 9 10 10 10 9 9 8 8 9 10 11
13 2 9 8 2 5 4 2 7 7 4 6 10 8 3 3 6 2 1 2 4 2 7 8 4 6 7 7 8 9 10 10 11 11 11 10 10 9 8 8 9 10 11
4 25 19 9 5 9 14 9 4 10 5 7 6 8 6 4 5 6 4 5 5 5 7 4 4 5 5 7 9 10 10 11 10 10 10 10 11 12 12 11 10 11 10
3 4 4 5 2 9 3 3 7 7 4 7 6 8 11 7 17 22 28 1 5 5 5 2 7 3 5 6 8 9 10 10 10 10 11 11 11 11 10 10 10 10 10
5 4 1 2 3 5 3 4 3 8 10 6 4 15 4 14 31 21 30 11 2 5 5 6 8 5 0 2 3 7 8 8 8 10 10 9 6 6 7 6 6 7 8
8 7 3 3 4 3 5 5 4 7 9 4 7 3 4 2 7 23 25 18 16 25 3 5 9 6 4 6 1 4 6 6 6 7 6 3 3 4 6 5 5 7 5
9 9 6 3 4 6 3 6 7 3 6 12 23 14 1 20 5 4 18 4 19 25 34 11 12 8 6 5 4 1 3 4 5 5 4 3 4 5 6 7 7 6 4
10 8 8 6 3 4 8 8 5 8 8 7 15 19 11 18 8 12 2 6 9 12 19 37 4 14 9 9 5 4 2 3 4 4 4 4 4 5 6 7 7 6 7
14 13 13 11 7 5 5 6 6 8 11 15 11 14 8 9 4 6 6 11 19 13 6 8 16 11 11 12 6 2 1 1 2 2 3 3 4 5 5 6 6 6 7
21 22 19 15 13 11 7 5 5 8 7 11 12 13 14 17 15 10 15 4 6 10 5 17 9 10 7 8 9 3 1 2 1 1 1 2 3 3 4 5 6 6 6
20 25 22 17 13 10 11 9 6 8 10 11 12 9 12 13 17 17 17 8 3 1 10 12 14 13 11 7 5 2 3 2 3 2 1 1 2 2 3 4 5 6 7
6 25 19 17 15 11 13 12 11 10 12 10 8 11 13 11 11 16 9 17 2 2 2 5 4 10 6 7 5 2 1 5 4 5 4 4 3 2 2 3 5 6 6
6 11 14 15 14 14 14 11 12 13 15 12 12 6 8 13 11 10 10 14 10 14 2 15 11 8 7 2 4 8 7 8 8 9 7 7 6 5 4 4 4 5 6
11 18 8 10 9 14 12 13 13 14 10 9 13 11 9 10 13 12 15 18 16 15 8 12 9 4 3 4 4 6 6 7 9 9 8 7 8 8 6 6 6 5 5
18 16 19 16 20 14 10 11 15 15 9 11 11 12 12 11 9 10 13 15 15 17 15 19 14 12 11 10 8 8 7 8 18 16 11 7 8 9 8 7 5 4 3
21 19 23 19 15 13 14 15 16 17 15 12 13 10 14 13 12 14 16 14 15 13 7 14 11 15 14 8 7 7 9 10 9 10 13 11 10 11 11 10 6 5 4
27 26 23 20 20 19 19 19 19 17 17 16 16 18 15 17 18 14 15 16 16 17 14 13 12 14 18 15 12 11 12 12 14 13 10 9 9 7 8 7 7 7 7
30 30 28 23 23 22 21 21 22 20 19 19 17 15 15 17 15 15 17 15 15 15 15 14 15 15 18 19 18 16 15 11 11 16 15 13 11 6 7 9 9 10 9
23 24 24 23 25 24 24 24 20 22 22 18 17 16 17 17 16 18 21 21 20 19 18 16 16 15 17 17 16 14 4 8 5 16 21 15 7 6 6 9 10 11 11
23 21 20 21 22 24 25 24 22 22 19 19 20 19 20 17 19 18 15 19 17 16 19 21 22 24 18 16 15 12 6 7 6 5 17 9 12 14 16 17 12 10 12
19 18 20 19 20 20 22 26 22 20 21 21 17 17 19 21 23 20 17 16 15 13 14 15 14 14 15 12 11 6 5 7 6 9 11 7 13 12 12 13 11 13 16
7 7 13 13 13 13 19 23 25 18 17 21 21 21 20 20 20 19 19 17 14 14 14 15 13 11 10 12 14 13 9 8 6 4 6 8 10 7 7 8 12 12 14
4 4 6 6 5 1 4 6 7 13 16 18 17 20 18 18 17 16 15 10 11 12 14 11 7 3 4 6 10 8 5 2 2 2 1 3 7 5 3 3 9 9 12
Wind_Direction
189 188 197 192 198 190 185 181 143 178 238 319 41 38 58 42 21 150 116 76 70 67 64 62 61 66 67 62 49 25 13 8 3 357 336 322 329 340 15 39 43 25 11
162 157 182 196 172 206 190 146 156 189 213 154 122 350 73 110 49 6 290 182 91 72 77 77 86 79 78 74 45 22 8 3 356 346 337 341 18 55 68 67 53 27 11
211 304 201 191 161 118 114 154 192 212 122 128 154 177 179 145 122 304 345 8 97 97 81 88 104 89 88 75 45 33 25 13 15 19 41 70 81 83 76 64 41 22 14
98 182 231 192 141 163 168 180 225 242 184 165 163 206 175 209 197 237 58 10 66 215 98 88 102 94 88 72 59 43 39 42 50 64 77 85 83 78 67 49 40 32 29
205 352 83 106 244 282 194 124 315 316 248 263 176 190 209 280 312 120 294 323 103 174 113 94 93 94 88 82 63 50 53 60 68 77 80 80 79 71 59 61 55 44 35
212 108 136 221 276 148 77 76 282 323 308 294 4 211 181 197 232 272 292 330 63 195 109 84 109 112 90 76 64 59 62 65 67 69 71 69 63 61 60 64 59 47 36
227 301 146 184 304 47 139 115 226 315 269 309 311 288 223 222 32 10 345 353 74 117 116 152 160 151 124 90 62 58 60 72 71 68 67 60 58 60 58 54 54 44 35
206 262 263 137 251 46 123 200 302 272 276 204 246 301 32 3 341 350 327 332 116 91 108 125 128 129 144 140 64 56 55 67 69 66 56 53 56 55 42 34 45 54 44
208 236 257 306 6 296 323 260 285 337 333 307 318 288 96 211 55 309 320 349 8 8 219 175 166 141 144 173 153 71 48 64 79 97 95 98 53 25 26 46 68 82 51
206 210 215 266 316 281 16 267 298 333 327 22 304 306 174 147 190 209 242 34 44 347 323 301 184 149 156 170 183 149 58 59 70 78 89 79 53 39 35 50 77 71 29
205 214 193 202 223 274 315 276 294 310 284 233 196 284 24 283 158 73 334 53 317 358 300 324 163 177 151 155 175 157 67 71 70 70 72 66 46 37 37 45 57 49 60
199 203 205 199 206 227 255 272 276 275 290 298 312 326 312 352 105 128 232 148 192 194 299 320 311 197 163 175 176 219 286 182 97 80 73 55 42 40 40 40 42 46 61
196 202 195 193 197 212 219 235 256 272 278 288 306 326 332 334 319 237 223 271 184 177 118 251 237 201 179 182 177 166 150 235 207 122 97 44 39 43 40 30 26 26 24
218 206 192 196 200 203 209 218 248 262 253 264 273 280 298 295 297 2 24 10 15 290 216 207 213 216 179 180 168 235 285 212 249 247 240 281 353 12 17 14 12 8 10
327 189 185 189 201 211 213 217 234 251 259 261 258 260 275 289 305 342 345 294 327 281 281 294 51 129 143 187 166 145 275 252 254 257 248 249 267 297 318 337 347 352 356
153 183 197 207 202 202 214 218 238 252 258 251 258 293 270 288 308 332 302 322 309 259 274 310 64 126 148 307 176 189 214 234 251 268 257 252 256 269 283 299 318 333 343
225 221 179 231 274 224 216 220 236 255 273 236 258 272 292 263 291 305 309 321 327 330 350 324 7 40 33 202 209 221 255 260 260 238 241 246 255 264 270 283 297 317 332
224 243 232 221 222 237 237 243 243 251 264 235 242 250 259 277 318 284 285 294 321 328 338 320 315 322 325 274 231 214 247 251 247 238 230 240 260 256 258 262 270 293 297
215 224 225 232 236 235 239 232 241 245 257 253 249 260 266 266 274 280 284 298 301 307 303 299 296 302 307 291 245 242 249 257 252 233 233 233 255 263 253 250 241 234 224
217 215 228 233 234 227 233 237 235 233 241 255 257 262 270 264 261 264 277 275 286 294 300 298 292 294 294 287 287 279 272 249 238 229 225 236 222 226 231 219 204 185 159
215 213 218 223 224 229 229 231 232 237 244 247 258 257 263 266 256 250 258 264 268 274 280 288 291 291 289 296 296 295 274 286 262 220 196 226 226 202 195 187 181 163 148
220 219 222 224 224 227 231 239 231 233 241 241 247 250 257 265 268 263 262 267 270 264 262 266 273 276 280 293 309 307 287 269 248 216 203 199 210 207 207 201 186 169 158
221 218 222 226 230 232 236 246 250 229 231 235 244 249 251 258 262 270 269 268 268 273 266 264 264 267 280 293 298 290 278 249 257 188 191 148 180 155 181 187 186 174 173
231 233 233 230 234 237 243 247 256 242 239 242 244 253 258 260 265 274 274 270 274 284 281 279 271 269 265 271 270 270 278 286 252 196 192 142 173 155 169 168 174 183 196
216 234 244 250 240 247 249 248 243 242 240 245 251 257 259 261 262 265 266 274 267 269 262 266 262 255 256 260 264 280 284 280 251 193 215 173 170 151 158 189 205 208 208
116 133 97 102 86 101 293 266 268 238 245 261 263 261 253 265 264 263 262 265 279 278 254 238 249 247 267 307 312 305 279 13 105 97 159 113 127 136 125 230 238 213 229
Height
847 848 846 847 845 845 845 841 840 839 836 836 838 834 836 840 844 846 844 845 845 845 846 846 846 847 848 848 848 848 848 846 846 845 844 844 843 842 841 841 841 840 839
840 843 843 842 843 842 843 842 840 839 838 839 840 841 843 845 847 847 847 846 846 846 846 845 846 847 847 847 848 848 847 847 845 844 843 842 842 842 841 842 842 841 840
835 839 840 842 844 841 840 842 841 840 841 843 845 846 845 846 847 847 846 846 846 847 847 846 847 846 847 847 847 848 847 847 845 843 842 842 843 843 843 843 842 841 840
831 837 842 836 844 844 842 844 844 842 842 843 845 846 847 847 846 846 847 846 846 845 846 847 847 847 847 847 847 847 847 847 845 845 844 844 844 844 843 843 843 842 840
834 832 834 835 849 847 846 843 843 844 844 843 844 846 848 848 847 847 847 846 846 844 845 846 847 848 848 848 847 847 847 846 846 846 846 846 845 845 844 844 843 842 841
842 849 840 840 850 849 848 839 845 846 845 845 845 845 845 847 848 847 846 846 846 844 844 846 847 848 849 848 848 847 847 847 846 847 847 847 846 846 845 844 843 842 842
846 844 839 844 851 849 845 845 849 849 846 844 845 843 842 846 848 847 850 848 848 848 847 845 846 849 848 849 849 848 848 848 847 848 848 848 847 847 846 845 843 842 842
846 847 848 851 848 845 842 846 850 846 844 843 842 843 846 849 849 847 849 849 849 849 849 849 847 847 848 849 850 848 848 847 847 848 849 849 848 847 846 845 844 843 843
843 844 844 844 840 838 841 845 843 843 842 841 840 843 856 871 868 857 850 853 851 853 850 849 848 847 845 847 848 849 849 848 848 848 849 848 848 847 846 845 844 844 843
836 837 838 838 838 838 843 843 841 841 843 847 845 842 844 846 862 864 859 857 850 858 853 849 846 848 846 844 847 849 849 849 848 848 848 848 847 847 846 845 844 844 843
833 833 835 838 839 839 841 840 842 842 842 852 853 849 844 845 843 846 852 852 855 861 856 851 846 845 843 842 845 847 848 848 848 848 847 847 847 847 846 845 844 843 842
831 832 833 836 838 839 842 842 843 844 842 840 842 842 844 842 844 841 845 852 856 853 857 851 846 844 841 839 841 844 846 847 847 847 847 847 847 847 846 845 844 843 843
827 828 831 833 835 838 840 842 843 844 843 842 840 840 840 840 839 843 841 838 845 850 843 844 841 840 839 838 839 841 844 846 847 846 847 847 846 846 846 845 844 843 842
826 827 830 832 834 835 836 839 840 842 843 843 843 842 841 843 843 841 840 840 840 841 841 838 839 836 834 836 838 840 842 844 845 845 845 846 845 845 845 844 844 843 842
823 825 827 829 831 833 835 835 837 839 841 841 841 840 840 840 841 840 838 840 839 843 839 837 834 834 833 834 836 837 838 841 843 844 844 844 845 844 844 844 843 843 842
823 825 825 826 828 829 832 833 834 835 836 839 839 839 839 838 837 839 840 838 837 837 835 832 832 832 832 840 837 837 836 838 839 841 842 842 843 843 843 843 842 842 842
814 817 822 831 836 833 828 831 832 832 834 836 837 838 839 837 836 834 835 834 834 834 833 831 833 833 834 835 835 834 835 835 836 837 838 839 840 841 842 842 842 842 841
813 809 814 830 829 834 824 827 829 828 830 832 831 833 836 835 833 833 833 833 831 832 832 834 830 830 832 833 832 831 831 833 832 834 835 836 837 838 839 840 841 841 840
811 811 808 818 822 819 822 824 825 824 825 827 830 832 832 831 832 833 833 832 831 833 834 836 829 831 830 831 831 829 830 831 831 833 832 832 833 834 835 836 838 839 839
806 808 808 809 813 816 820 821 822 822 822 824 825 826 827 828 828 830 830 829 829 828 829 829 828 828 828 829 830 828 827 830 829 829 831 833 831 831 833 835 836 838 839
804 804 804 805 810 815 816 816 818 819 821 821 823 824 823 823 824 824 826 825 826 826 825 825 826 825 825 824 825 826 825 826 827 825 828 818 834 828 831 834 835 837 839
801 802 803 803 805 807 808 811 812 814 816 818 819 819 820 820 820 820 820 821 822 822 822 823 822 822 821 823 823 823 823 824 823 824 823 830 828 828 831 833 835 837 838
796 797 797 798 799 802 805 805 807 808 810 813 815 816 817 816 816 816 817 817 817 818 818 818 818 817 819 818 818 819 819 819 820 821 824 826 828 827 829 832 834 836 839
789 790 791 792 795 798 799 801 804 805 806 808 810 812 813 813 812 813 813 814 814 814 814 814 814 813 813 814 816 814 816 816 816 818 820 823 826 828 829 831 834 836 835
784 785 785 786 789 793 794 796 799 801 802 804 805 807 808 809 808 809 809 810 810 811 811 811 811 811 811 810 811 813 813 814 814 814 816 817 822 828 830 830 831 833 837
783 784 785 785 786 789 790 793 794 797 799 801 802 803 803 803 803 803 804 806 808 809 807 808 809 809 808 808 809 809 811 812 813 815 816 818 822 825 829 829 833 831 835